Rogers City, MI

3:34 PM EDT on September 25, 2017 (GMT -0400)
Presque Isle County

Weather History for KPZQ - November, 2012

Change the Weather History Date:

Sunday, November 4, 2012

  Actual Average (KAPN) Record (KAPN)
Temperature  
Mean Temperature 34 °F -  
Max Temperature 36 °F 46 °F 76 °F (2015)
Min Temperature 31 °F 30 °F 8 °F (1966)
Degree Days  
Heating Degree Days 32    
Moisture  
Dew Point 25 °F    
Average Humidity 69    
Maximum Humidity 75    
Minimum Humidity 61    
Precipitation  
Precipitation 0.00 in - - ()
Sea Level Pressure  
Sea Level Pressure 30.20 in    
Wind  
Wind Speed 5 mph (NNW)    
Max Wind Speed 9 mph    
Max Gust Speed -    
Visibility 10 miles    
Events      
Averages and records for this station are not official NWS values.
T = Trace of Precipitation, MM = Missing Value Source: NWS Daily Summary

Daily Weather History Graph

Daily Weather History Graph

Search for Another Location

Airport or City:

Trip Planner

Search our weather history database for the weather conditions in past years. The results will help you decide how hot, cold, wet, or windy it might be!

Date:

Astronomy

Nov. 04, 2012 Rise Set
Actual Time 7:19 AM EST 5:17 PM EST
Civil Twilight 6:48 AM EST 5:48 PM EST
Nautical Twilight 6:13 AM EST 6:23 PM EST
Astronomical Twilight 5:38 AM EST 6:58 PM EST
Moon 9:52 PM EST (11/4) 12:05 PM EST (11/4)
Length of Visible Light 11h 00m
Length of Day
9h 58m
Waning Gibbous, 72% of the Moon is Illuminated
Nov 4
Waning Gibbous
Nov 6
Last Quarter
Nov 13
New
Nov 20
First Quarter
Nov 28
Full

Hourly Weather History & Observations

Time (EST) Temp. Windchill Dew Point Humidity Pressure Visibility Wind Dir Wind Speed Gust Speed Precip Events Conditions
12:14 AM 36.1 °F 30.6 °F 25.7 °F 66% 30.19 in 10.0 mi North 6.9 mph - N/A   Overcast
12:34 AM 36.5 °F 32.7 °F 25.7 °F 65% 30.19 in 10.0 mi NNW 4.6 mph - N/A   Overcast
12:54 AM 36.1 °F 29.9 °F 25.7 °F 66% 30.19 in 10.0 mi North 8.1 mph - N/A   Overcast
1:14 AM 35.8 °F 30.9 °F 25.7 °F 67% 30.19 in 10.0 mi NE 5.8 mph - N/A   Overcast
1:35 AM 35.6 °F 31.7 °F 25.9 °F 68% 30.19 in 10.0 mi North 4.6 mph - N/A   Overcast
1:54 AM 35.2 °F 32.4 °F 25.3 °F 67% 30.19 in 10.0 mi NE 3.5 mph - N/A   Overcast
1:14 AM 35.2 °F 31.2 °F 25.7 °F 68% 30.19 in 10.0 mi NNW 4.6 mph - N/A   Overcast
1:35 AM 34.9 °F 29.0 °F 25.5 °F 69% 30.19 in 10.0 mi North 6.9 mph - N/A   Overcast
1:54 AM 34.5 °F 31.6 °F 24.8 °F 68% 30.20 in 10.0 mi North 3.5 mph - N/A   Overcast
2:14 AM 34.5 °F - 24.8 °F 68% 30.20 in 10.0 mi Calm Calm - N/A   Overcast
2:35 AM 34.7 °F 31.8 °F 25.5 °F 69% 30.20 in 10.0 mi North 3.5 mph - N/A   Overcast
2:54 AM 34.7 °F 31.8 °F 25.7 °F 70% 30.20 in 10.0 mi NW 3.5 mph - N/A   Overcast
3:14 AM 34.7 °F 30.6 °F 25.2 °F 68% 30.20 in 10.0 mi NW 4.6 mph - N/A   Overcast
3:34 AM 34.3 °F 30.2 °F 25.3 °F 70% 30.20 in 10.0 mi NNW 4.6 mph - N/A   Overcast
3:54 AM 34.7 °F 31.8 °F 25.2 °F 68% 30.20 in 10.0 mi NNW 3.5 mph - N/A   Overcast
4:15 AM 34.5 °F 30.4 °F 25.3 °F 69% 30.20 in 10.0 mi NNW 4.6 mph - N/A   Overcast
4:34 AM 34.2 °F 29.0 °F 25.7 °F 71% 30.20 in 10.0 mi NW 5.8 mph - N/A   Overcast
4:54 AM 34.3 °F - 25.3 °F 70% 30.20 in 10.0 mi Calm Calm - N/A   Overcast
5:14 AM 34.3 °F - 25.5 °F 70% 30.20 in 10.0 mi Calm Calm - N/A   Overcast
5:34 AM 34.3 °F - 25.7 °F 71% 30.19 in 10.0 mi Calm Calm - N/A   Overcast
5:55 AM 34.2 °F 31.2 °F 26.1 °F 72% 30.20 in 10.0 mi West 3.5 mph - N/A   Overcast
6:14 AM 34.3 °F 30.2 °F 25.5 °F 70% 30.20 in 10.0 mi North 4.6 mph - N/A   Overcast
6:34 AM 34.3 °F 31.4 °F 25.3 °F 70% 30.20 in 10.0 mi NNW 3.5 mph - N/A   Overcast
6:55 AM 34.2 °F 31.2 °F 26.4 °F 73% 30.20 in 10.0 mi NW 3.5 mph - N/A   Overcast
7:14 AM 34.2 °F 29.0 °F 26.4 °F 73% 30.21 in 10.0 mi NNW 5.8 mph - N/A   Overcast
7:34 AM 34.3 °F 30.2 °F 26.6 °F 73% 30.22 in 10.0 mi NNW 4.6 mph - N/A   Overcast
7:55 AM 34.5 °F 30.4 °F 26.4 °F 72% 30.23 in 10.0 mi WNW 4.6 mph - N/A   Overcast
8:14 AM 34.2 °F 31.2 °F 25.9 °F 72% 30.23 in 10.0 mi WNW 3.5 mph - N/A   Overcast
8:34 AM 33.8 °F 30.8 °F 25.9 °F 73% 30.23 in 10.0 mi West 3.5 mph - N/A   Overcast
8:55 AM 33.4 °F 28.1 °F 26.2 °F 75% 30.23 in 10.0 mi West 5.8 mph - N/A   Overcast
9:14 AM 33.8 °F 30.8 °F 26.2 °F 74% 30.22 in 10.0 mi West 3.5 mph - N/A   Overcast
9:35 AM 33.8 °F 27.0 °F 25.9 °F 73% 30.22 in 10.0 mi West 8.1 mph - N/A   Overcast
9:54 AM 33.8 °F 27.7 °F 25.5 °F 72% 30.22 in 10.0 mi West 6.9 mph - N/A   Overcast
10:14 AM 33.8 °F 27.0 °F 25.3 °F 71% 30.22 in 10.0 mi West 8.1 mph - N/A   Overcast
10:35 AM 34.5 °F 28.6 °F 25.7 °F 70% 30.22 in 10.0 mi West 6.9 mph - N/A   Overcast
10:54 AM 35.1 °F 29.3 °F 25.7 °F 69% 30.22 in 10.0 mi WNW 6.9 mph - N/A   Overcast
11:14 AM 35.4 °F 29.0 °F 25.7 °F 68% 30.22 in 10.0 mi NW 8.1 mph - N/A   Overcast
11:35 AM 35.2 °F 30.3 °F 25.7 °F 68% 30.22 in 10.0 mi WNW 5.8 mph - N/A   Overcast
11:54 AM 35.1 °F 30.1 °F 25.9 °F 69% 30.21 in 10.0 mi NNW 5.8 mph - N/A   Overcast
12:14 PM 35.6 °F 31.7 °F 25.3 °F 66% 30.20 in 10.0 mi NW 4.6 mph - N/A   Overcast
12:34 PM 35.8 °F 31.9 °F 25.0 °F 65% 30.20 in 10.0 mi NW 4.6 mph - N/A   Overcast
12:54 PM 36.3 °F 30.1 °F 25.0 °F 63% 30.20 in 10.0 mi WNW 8.1 mph - N/A   Overcast
1:15 PM 35.8 °F 30.1 °F 25.2 °F 65% 30.20 in 10.0 mi NW 6.9 mph - N/A   Overcast
1:34 PM 35.6 °F 29.9 °F 24.8 °F 65% 30.19 in 10.0 mi North 6.9 mph - N/A   Overcast
1:54 PM 36.1 °F 29.9 °F 25.0 °F 64% 30.19 in 10.0 mi NNW 8.1 mph - N/A   Scattered Clouds
2:15 PM 34.9 °F 28.3 °F 25.0 °F 67% 30.19 in 10.0 mi NNW 8.1 mph - N/A   Scattered Clouds
2:34 PM 36.7 °F 30.5 °F 25.5 °F 64% 30.19 in 10.0 mi NNW 8.1 mph - N/A   Mostly Cloudy
2:54 PM 35.4 °F 29.7 °F 25.2 °F 66% 30.19 in 10.0 mi NNW 6.9 mph - N/A   Mostly Cloudy
3:14 PM 35.1 °F 29.3 °F 25.0 °F 67% 30.20 in 10.0 mi NW 6.9 mph - N/A   Overcast
3:34 PM 34.7 °F 28.8 °F 25.3 °F 69% 30.20 in 10.0 mi NNW 6.9 mph - N/A   Overcast
3:55 PM 33.8 °F 27.7 °F 24.4 °F 69% 30.20 in 10.0 mi NW 6.9 mph - N/A   Mostly Cloudy
4:14 PM 33.4 °F 29.1 °F 24.4 °F 70% 30.20 in 10.0 mi NNW 4.6 mph - N/A   Scattered Clouds
4:34 PM 33.1 °F 27.7 °F 24.1 °F 70% 30.20 in 10.0 mi WNW 5.8 mph - N/A   Scattered Clouds
4:54 PM 32.4 °F 29.1 °F 23.7 °F 70% 30.20 in 10.0 mi NW 3.5 mph - N/A   Clear
5:14 PM 32.0 °F 28.7 °F 23.7 °F 71% 30.20 in 10.0 mi NW 3.5 mph - N/A   Scattered Clouds
5:35 PM 32.0 °F 26.4 °F 23.4 °F 70% 30.20 in 10.0 mi NW 5.8 mph - N/A   Mostly Cloudy
5:54 PM 32.2 °F 28.9 °F 23.5 °F 70% 30.20 in 10.0 mi North 3.5 mph - N/A   Mostly Cloudy
6:14 PM 32.2 °F 28.9 °F 23.7 °F 71% 30.20 in 10.0 mi WNW 3.5 mph - N/A   Overcast
6:35 PM 31.3 °F - 23.5 °F 73% 30.21 in 10.0 mi Calm Calm - N/A   Mostly Cloudy
6:54 PM 31.3 °F 26.6 °F 23.5 °F 73% 30.22 in 10.0 mi NNW 4.6 mph - N/A   Mostly Cloudy
7:14 PM 32.2 °F 25.8 °F 23.0 °F 69% 30.22 in 10.0 mi North 6.9 mph - N/A   Scattered Clouds
7:35 PM 33.4 °F 27.3 °F 23.2 °F 66% 30.21 in 10.0 mi North 6.9 mph - N/A   Mostly Cloudy
7:54 PM 34.0 °F 31.0 °F 23.7 °F 66% 30.21 in 10.0 mi North 3.5 mph - N/A   Overcast
8:14 PM 34.7 °F 31.8 °F 23.7 °F 64% 30.21 in 10.0 mi North 3.5 mph - N/A   Overcast
8:34 PM 35.1 °F 30.1 °F 22.8 °F 61% 30.20 in 10.0 mi NE 5.8 mph - N/A   Overcast
8:54 PM 35.2 °F 31.2 °F 22.8 °F 61% 30.20 in 10.0 mi NE 4.6 mph - N/A   Overcast
9:15 PM 35.2 °F 30.3 °F 23.0 °F 61% 30.20 in 10.0 mi North 5.8 mph - N/A   Overcast
9:34 PM 35.4 °F 30.5 °F 25.0 °F 66% 30.20 in 10.0 mi NNE 5.8 mph - N/A   Overcast
9:54 PM 35.1 °F 28.6 °F 24.4 °F 65% 30.20 in 10.0 mi NE 8.1 mph - N/A   Overcast
10:15 PM 34.7 °F 28.1 °F 24.8 °F 67% 30.20 in 10.0 mi NNE 8.1 mph - N/A   Overcast
10:34 PM 34.3 °F 27.0 °F 25.7 °F 71% 30.21 in 10.0 mi NE 9.2 mph - N/A   Overcast
10:54 PM 33.8 °F 26.4 °F 25.5 °F 72% 30.21 in 10.0 mi NE 9.2 mph - N/A   Overcast